| time (UTC) | temp F | wind direction | speed MPH | gust MPH | rain 1hr in | rain 24hr in | rain mn in | humidity % | barometer mb |
| 20260508082531 | 54 | 162 | 3.0 | 9.0 | 0.00 | 0.02 | 0.02 | 86 | 1009.0 |
| 20260508081030 | 53 | 153 | 5.0 | 9.0 | 0.00 | 0.02 | 0.02 | 86 | 1008.9 |
| 20260508071029 | 52 | 194 | 1.0 | 4.0 | 0.00 | 0.02 | 0.02 | 80 | 1008.5 |
| 20260508061027 | 51 | 121 | 7.0 | 11.0 | 0.02 | 0.02 | 0.02 | 83 | 1008.2 |
| 20260508055527 | 51 | 87 | 7.0 | 11.0 | 0.02 | 0.02 | 0.02 | 85 | 1007.8 |
| 20260508050122 | 52 | 201 | 2.0 | 5.0 | 0.00 | 0.00 | 0.00 | 86 | 1008.1 |
| 20260508032519 | 52 | 112 | 0.0 | 0.0 | 0.00 | 0.00 | 0.00 | 86 | 1007.9 |
| 20260508022531 | 51 | 111 | 2.0 | 4.0 | 0.00 | 0.00 | 0.00 | 86 | 1008.3 |
| 20260508021013 | 52 | 112 | 2.0 | 3.0 | 0.00 | 0.00 | 0.00 | 85 | 1008.4 |
| 20260508004005 | 52 | 105 | 1.0 | 2.0 | 0.00 | 0.00 | 0.00 | 85 | 1009.3 |
| 20260507235506 | 53 | 103 | 2.0 | 4.0 | 0.00 | 0.00 | 0.00 | 85 | 1009.6 |
| 20260507224003 | 53 | 103 | 2.0 | 4.0 | 0.00 | 0.00 | 0.00 | 84 | 1010.2 |
| 20260507210949 | 53 | 246 | 1.0 | 4.0 | 0.00 | 0.00 | 0.00 | 83 | 1010.7 |
| 20260507190939 | 57 | 232 | 5.0 | 12.0 | 0.00 | 0.00 | 0.00 | 75 | 1009.5 |
| 20260507185438 | 58 | 236 | 7.0 | 13.0 | 0.00 | 0.00 | 0.00 | 73 | 1009.3 |
| 20260507175439 | 62 | 224 | 9.0 | 14.0 | 0.00 | 0.00 | 0.00 | 65 | 1009.0 |
| 20260507165439 | 64 | 242 | 12.0 | 20.0 | 0.00 | 0.00 | 0.00 | 60 | 1008.9 |
| 20260507162438 | 65 | 246 | 13.0 | 22.0 | 0.00 | 0.00 | 0.00 | 60 | 1008.8 |
| 20260507153938 | 66 | 224 | 11.0 | 18.0 | 0.00 | 0.00 | 0.00 | 59 | 1008.6 |
| 20260507120935 | 64 | 244 | 11.0 | 19.0 | 0.00 | 0.00 | 0.00 | 68 | 1009.7 |
| 20260507113935 | 63 | 244 | 9.0 | 15.0 | 0.00 | 0.00 | 0.00 | 69 | 1009.8 |
| 20260507105435 | 62 | 277 | 6.0 | 12.0 | 0.00 | 0.00 | 0.00 | 68 | 1009.7 |